COSMOS 2499 DEB, 55733

Orbit data source: Space-Track

COSMOS 2499 DEB, 55733 is space debris in LEO originally from a launch on Fri, 23 May 2014 UTC launched from the Plesetsk Missile And Space Complex (PKMTR). Debris objects in space refer to the collection of defunct objects orbiting the Earth. Examples of debris include non-operational satellites, rocket bodies, and fragments generated from explosions, collisions, or faulty payload assembly.

Loading next visibility...
Identifier
55733, 2014-028AV
Orbit
LEO
Country
Flag of CISCIS
Related business
Manufacturer
TsNIIKhM
Mission
Spacecraft
Bus & Motor
Unknown
Mass
Unknown
Launch date (UTC)
2014-05-23 (12 years ago)
Launch vehicle
Unknown
Launch site
Plesetsk Missile And Space Complex (PKMTR)
Object type
Payload
Rocket body
Debris
Shape & HBR
Unknown shape, 0.1 m
Radar Cross Section
Small (<0.1 m²)

Expand to show TLE details & history
Last TLE update: 3 days ago

TLE from 3 days ago
0 COSMOS 2499 DEB
1 55733U 14028AV  25347.25617367  .00012703  00000-0  22491-1 0  9998
2 55733  82.2707 321.7441 0352831 327.6550  30.3367 13.20834277 80347
Epoch: 2025-12-13T06:08Z
TLE epoch observation values (Epoch: 2025-12-13T06:08:53.405Z)
Latitude
-0.00002°
Longitude
147.33552°
Altitude
956.616 km
Speed
7.484 km/s
True Right ascension
21h 26m 58s
True Declination
0° 00' 00"
Sunlit
Object was in daylight at epoch
Visualization orbit readout
Latitude
Unknown
Longitude
Unknown
Altitude
Unknown
Speed
Unknown
Apparent Right ascension
Unknown
Apparent Declination
Unknown
Sunlit
N/A
Visualization observer readout
Local Sidereal Time
11:10:55
Azimuth
Unknown
Elevation
Unknown
Doppler factor
Unknown
Orbital elements
Apogee altitude
1,445.412 km
Perigee altitude
912.149 km
Semi-major axis
7,556.917 km
Eccentricity
0.03528
Inclination
82.2707°
RAAN
321.7441°
Arg. of periapsis
327.655°
True anomaly
32.459°
Mean anomaly
30.3367°
Eccentric anomaly
31.38965°
Mean motion
3.30389 °/min
Orbital period
108.96 mins
BSTAR
0.022491
Loading maneuver chart data...
Computing Atmospheric mass density...
Loading historical data...
Loading historical data...
Loading historical data...
Loading historical data...
Loading historical data...
Loading historical data...
Loading historical data...

Documentation

Showing up to 5 results
|